Location: Morrison Observatory
(41.7012°N, 86.2315°W)
Time: 09:24:32
(UTC-05:00)

Daily predictions for brighter satellites

Satellite Brightness Start Highest point End
(mag) Time Altitude Azimuth Time Altitude Azimuth Time Altitude Azimuth
USA 234 3.4 17:36:25 10° NE 17:42:58 71° SE 17:49:27 10° SW
BREEZE M DEB (TANK) 3.5 17:43:57 10° NW 17:46:31 28° NNE 17:52:00 10° ENE
SL-8 R/B 3.8 17:42:40 10° SW 17:47:25 75° SSE 17:52:13 10° ENE
COSMOS 2406 4.2 17:42:40 10° NNW 17:48:15 55° WSW 17:53:49 10° S
Genesis I 4.0 17:46:18 10° NNW 17:49:50 31° NE 17:53:20 10° ESE
Cosmos 1536 Rocket 4.0 17:50:16 10° SSE 17:54:27 41° E 17:58:40 10° NNE
Cosmos 1833 Rocket 3.7 17:51:59 10° N 17:56:28 23° NE 18:00:55 10° ESE
NOSS 3-3 (A) 4.1 17:52:20 10° SSW 17:58:22 62° ESE 18:04:53 10° NE
NOSS 3-3 (C) 4.1 17:52:26 10° SSW 17:58:28 61° ESE 18:04:59 10° NE
OPS 8737 4.3 17:55:17 10° SW 17:58:38 81° NW 18:01:48 10° NNE
Cosmos 2082 Rocket 3.0 17:54:28 10° N 17:59:19 28° NE 18:04:10 10° ESE
Cosmos 921 Rocket 4.5 17:58:04 10° SE 18:00:56 18° E 18:03:31 11° NE
Cosmos 1238 Rocket 2.0 18:00:07 10° S 18:03:02 66° E 18:06:07 10° NNE
YAOGAN 1 2.6 17:59:16 10° SSE 18:03:31 59° ENE 18:07:47 10° N
SPOT 3 Rocket 3.5 17:59:04 10° SSE 18:04:13 71° ENE 18:09:23 10° N
MSX 4.0 17:59:04 10° SE 18:04:33 48° ENE 18:10:03 10° N
CZ-4 R/B 1.4 18:00:50 10° SSE 18:05:01 88° ENE 18:09:10 10° NNW
Cosmos 1975 3.2 18:01:17 10° N 18:05:11 43° ENE 18:09:01 10° SSE
Cosmos 1743 4.2 18:02:49 10° NNE 18:05:25 17° ENE 18:08:00 10° ESE
ATLAS 2AS CENTAUR R/B 3.2 17:58:44 10° NW 18:06:51 81° WSW 18:14:22 10° SSE
Cosmos 494 Rocket 4.0 18:01:59 10° NNW 18:07:16 84° ENE 18:12:32 10° SSE
COSMOS 2487 3.2 18:06:08 10° N 18:09:24 32° ENE 18:12:39 10° SE
Cosmos 1500 3.7 18:06:42 10° N 18:10:19 38° ENE 18:13:55 10° SSE
Meteor 1-12 Rocket 4.3 18:05:49 10° N 18:11:38 72° E 18:17:31 10° SSE
CRYOSAT 2 4.5 18:06:50 10° N 18:11:46 83° W 18:16:39 10° S
Cosmos 1484 Rocket 3.5 18:08:46 10° SE 18:12:00 28° ENE 18:15:14 10° N
CZ-2C R/B 2.4 18:07:43 10° SSE 18:12:43 83° ENE 18:17:53 10° N
USA 32 4.2 18:07:57 10° S 18:13:10 78° W 18:18:25 10° N
MOS 1 4.3 18:07:58 10° SSE 18:13:39 88° ENE 18:19:20 10° NNW
SJ-12 4.1 18:13:52 10° S 18:17:57 78° WSW 18:22:05 10° NNW
Tiangong 1 1.7 18:15:13 10° SW 18:18:07 42° SSE 18:19:54 19° E
COSMOS 2441 4.5 18:15:25 10° SSE 18:20:08 52° ENE 18:24:54 10° N
Cosmos 1455 Rocket 3.3 18:17:59 10° N 18:22:24 76° W 18:26:49 10° S
SKYMED 2 4.1 18:22:04 10° NNE 18:26:09 38° E 18:30:12 10° SSE
FALCON 9 R/B 4.4 17:57:22 10° WSW 18:28:32 58° S 18:35:31 14° E
IDEFIX/ARIANE 42P 2.8 18:23:57 10° S 18:29:08 72° WSW 18:34:20 10° NNW
BREEZE-M R/B 4.4 18:19:07 10° WSW 18:30:52 85° NNW 18:34:45 20° ENE
ASTRO F (AKARI) 4.1 18:28:15 12° NNE 18:31:11 75° ESE 18:34:19 10° S
Meteor 2-4 Rocket 4.4 18:31:54 10° SSE 18:36:29 29° E 18:38:55 21° NE
Okean 1-7 Rocket 4.0 18:32:16 10° SSE 18:36:32 42° E 18:39:56 15° NNE
Cosmos 1809 Rocket 4.4 18:32:48 10° N 18:38:59 75° E 18:45:05 10° SSE
Thor Agena Rocket 4.1 18:33:59 10° N 18:39:08 60° WNW 18:44:18 10° SSW
Cosmos 1844 Rocket 4.3 18:34:58 10° WSW 18:39:53 31° NW 18:44:51 10° N
Cosmos 1812 4.0 18:38:02 10° SSW 18:41:41 41° WNW 18:45:22 10° N
Cosmos 1934 Rocket 4.4 18:41:17 10° N 18:47:02 38° ENE 18:52:50 10° SE
OE (NEXTSAT) 4.4 18:43:45 10° WSW 18:47:20 73° NNW 18:48:25 41° NE
NOSS 2-1 (D) 3.4 18:48:45 10° SSW 18:52:27 54° ESE 18:53:30 40° ENE
NOSS 2-1 (C) 3.5 18:49:26 10° SSW 18:53:09 53° ESE 18:54:08 41° ENE
TIMED 4.4 18:49:50 10° SSW 18:54:12 84° ESE 18:56:50 24° NNE
Abrixas 2.6 18:52:10 10° WNW 18:54:52 56° N 18:54:52 56° N
Timation 1 Rocket 4.2 18:54:35 10° SSW 19:00:31 75° ESE 19:04:20 23° NNE
DMSP B5D1-3 4.4 18:57:10 14° NNE 19:01:36 70° ESE 19:06:42 10° S
Cosmos 1346 Rocket 3.7 19:01:28 10° SSW 19:05:14 47° WNW 19:08:51 11° N
Cosmos 2239 Rocket 4.3 18:59:13 10° N 19:05:25 69° E 19:11:32 10° SSE
Cosmos 2297 3.7 19:00:45 10° SSW 19:06:23 81° WNW 19:10:21 21° NNE
BREEZE M DEB (TANK) 2.3 19:00:15 10° SW 19:08:07 86° SSE 19:08:45 60° ENE
ISS -0.9 19:06:03 10° NW 19:07:47 15° NNW 19:07:47 15° NNW
Timation 2 Rocket 4.3 19:03:00 10° NNW 19:09:51 80° WSW 19:16:44 10° SSE
NOSS 2-1 (E) 3.2 19:07:54 10° SSW 19:11:45 77° ESE 19:12:13 67° ENE
COSMO-SKYMED 1 3.0 19:10:34 14° N 19:14:14 61° WNW 19:18:30 10° SSW
NOAA 12 3.9 19:10:43 10° SSE 19:15:58 74° ENE 19:21:14 10° N
Cosmos 1821 Rocket 3.8 19:10:06 10° N 19:16:13 80° E 19:22:19 10° S
Cosmos 2278 Rocket 3.7 19:13:30 10° WSW 19:18:32 33° WNW 19:23:38 10° N
Intercosmos 25 3.9 19:17:53 10° NNW 19:20:57 45° W 19:24:10 10° SSW
USA 234 4.1 19:22:16 24° NNE 19:25:42 41° NNW 19:31:44 10° W
CZ-3B DEB 3.5 19:22:04 10° W 19:26:45 43° NNW 19:31:38 26° NE
Cosmos 1605 Rocket 4.0 19:20:34 10° N 19:26:45 55° ENE 19:32:48 10° SSE
SL-8 R/B 4.4 19:25:42 10° W 19:30:15 42° NNW 19:30:27 42° N
METEOR-M 4.0 19:26:20 10° SSE 19:31:41 86° ENE 19:37:03 10° NNW
Cosmos 2056 Rocket 3.4 19:27:07 10° S 19:32:28 73° ESE 19:32:41 72° E
Cosmos 1025 Rocket 3.3 19:31:34 10° SSW 19:35:54 66° W 19:36:25 60° NW
Cosmos 921 Rocket 4.3 19:34:55 10° SW 19:38:53 38° WNW 19:40:22 29° NNW
Cosmos 1833 Rocket 3.3 19:35:15 10° NNW 19:40:45 56° WSW 19:46:14 10° S
NOSS 3-4 (A) 3.7 19:35:44 10° NNW 19:42:47 80° NE 19:45:08 47° SE
NOSS 3-4 (C) 3.7 19:35:50 10° NNW 19:42:53 79° NE 19:45:08 48° SE
Cosmos 2082 Rocket 3.2 19:38:13 10° NW 19:43:35 45° WSW 19:48:57 10° S
Cosmos 1624 Rocket 4.0 19:40:42 10° SSW 19:45:53 79° WNW 19:46:00 78° NW
GEOS 3 Rocket 3.8 19:47:42 52° S 19:48:48 67° SW 19:53:55 10° NW
Tiangong 1 4.4 19:51:13 10° W 19:51:36 13° W 19:51:36 13° W
Meteor 1-15 Rocket 4.3 19:48:19 10° NNW 19:54:14 79° W 20:00:01 10° S
